Retour au catalogue

STARLINK-36267

ActifCommunicationsVLEO
NORAD 67198·PAYLOAD·🇺🇸 United States

Lancé Dec 17, 2025 depuis Vandenberg Space Force Base

Loading…

Prochains Passages (prochaines 24 heures)

TLE

FraisSource: CelesTrak SupGP

Époque: Sep 14, 2026, 23:02 UTC

1 67198C 25304G   26257.96020833 -.00007005  00000+0 -58699-3 0  2578
2 67198  70.0015  57.2943 0002941 269.8601 111.7064 14.98335700    15

Suivez STARLINK-36267 en temps réel avec AllMySat

Download on the App Store